This demonstration page uses our WeatherBlox Daily Observations layout. Learn more.

Left ArrowRight Arrow

44.8408, -93.29828

Hourly Observations for September 9, 2021

Temp ( °F °C ) Dew Point ( °F °C ) Humidity (%) Winds ( mph kmh ) Pressure ( in mb ) Visibility ( mi km ) Precip ( " mm )
12:53 am 00:53 Clear 60 15.6 52 11.1 75 75 WNW 6 9 29.99 1016 10 16 0.00 0.00
1:53 am 01:53 Clear 58 14.4 51 10.6 78 78 WNW 6 9 29.99 1016 10 16 0.00 0.00
2:53 am 02:53 Clear 59 15 51 10.6 75 75 Calm 30.00 1016 10 16 0.00 0.00
3:53 am 03:53 Clear 58 14.4 51 10.6 78 78 Calm 30.00 1016 10 16 0.00 0.00
4:53 am 04:53 Clear 58 14.4 51 10.6 78 78 W 3 6 30.01 1016 10 16 0.00 0.00
5:53 am 05:53 Clear 57 13.9 51 10.6 81 81 SW 3 6 30.03 1017 10 16 0.00 0.00
6:53 am 06:53 Sunny 55 12.8 50 10 83 83 Calm 30.04 1017 10 16 0.00 0.00
7:53 am 07:53 Mostly Sunny 58 14.4 52 11.1 81 81 NW 5 7 30.05 1018 10 16 0.00 0.00
8:53 am 08:53 Mostly Sunny 62 16.7 53 11.7 73 73 WNW 3 6 30.06 1018 10 16 0.00 0.00
9:53 am 09:53 Mostly Sunny 66 18.9 55 12.8 68 68 N 5 7 30.06 1018 10 16 0.00 0.00
10:53 am 10:53 Mostly Sunny 69 20.6 53 11.7 57 57 Calm 30.06 1018 10 16 0.00 0.00
11:53 am 11:53 Mostly Sunny 71 21.7 53 11.7 53 53 W 8 13 30.06 1018 10 16 0.00 0.00
12:53 pm 12:53 Partly Cloudy 72 22.2 51 10.6 48 48 WNW 5 7 30.04 1017 10 16 0.00 0.00
1:53 pm 13:53 Partly Cloudy 73 22.8 53 11.7 50 50 VRB 7 11 30.02 1017 10 16 0.00 0.00
2:53 pm 14:53 Partly Cloudy 74 23.3 53 11.7 48 48 Calm 30.01 1016 10 16 0.00 0.00
3:53 pm 15:53 Partly Cloudy 74 23.3 52 11.1 46 46 VRB 3 6 30.00 1016 10 16 0.00 0.00
4:53 pm 16:53 Partly Cloudy 73 22.8 51 10.6 46 46 SSE 7 11 29.99 1016 10 16 0.00 0.00
5:53 pm 17:53 Partly Cloudy 73 22.8 50 10 44 44 SSE 6 9 29.98 1015 10 16 0.00 0.00
6:53 pm 18:53 Partly Cloudy 73 22.8 49 9.4 43 43 Calm 29.99 1016 10 16 0.00 0.00
7:53 pm 19:53 Partly Cloudy 71 21.7 51 10.6 49 49 W 3 6 29.99 1016 10 16 0.00 0.00
8:53 pm 20:53 Mostly Cloudy 70 21.1 51 10.6 51 51 S 6 9 29.98 1015 10 16 0.00 0.00
9:53 pm 21:53 Mostly Cloudy 68 20 51 10.6 55 55 WSW 3 6 30.01 1016 10 16 0.00 0.00
10:53 pm 22:53 Mostly Clear 66 18.9 52 11.1 61 61 ESE 5 7 30.00 1016 10 16 0.00 0.00
11:53 pm 23:53 Clear 64 17.8 52 11.1 65 65 SE 3 6 30.01 1016 10 16 0.00 0.00

Powered by AerisWeather